When you browse on this site, cookies collect data to enhance your experience and personalize the content and advertising you see.
Visit our Privacy Policy to learn more. By continuing to use the site, you agree to this use of cookies and data.
  • In Schweiz
  • Länderverzeichnis
  • Für 7 Tage
  • Wassertemperatur
  • Wetterkarte
  • Widgets
  • user-avatar
    Anmelden

    Stündliche Wetter Brasilia

    Heute, 27 Mai, Mittwoch

    Zeit Temperatur Niederschläge Wind Luftdruck Luftfeuchtigkeit
    00:00 +14°C° 0 mm 0 m/S 666 mmHg 77%
    01:00 +13°C° 0 mm 0 m/S 665 mmHg 77%
    02:00 +13°C° 0 mm 0 m/S 665 mmHg 77%
    03:00 +13°C° 0 mm 0 m/S 665 mmHg 78%
    04:00 +12°C° 0 mm 0 m/S 665 mmHg 79%
    05:00 +12°C° 0 mm 0 m/S 665 mmHg 80%
    06:00 +12°C° 0 mm 0 m/S 665 mmHg 81%
    07:00 +14°C° 0 mm 0 m/S 666 mmHg 76%
    08:00 +16°C° 0 mm 0 m/S 667 mmHg 71%
    09:00 +17°C° 0 mm 0 m/S 668 mmHg 66%
    10:00 +21°C° 0 mm 1 m/S 668 mmHg 61%
    11:00 +23°C° 0 mm 1 m/S 668 mmHg 57%
    12:00 +25°C° 0 mm 1 m/S 668 mmHg 53%
    13:00 +26°C° 0 mm 1 m/S 668 mmHg 52%
    14:00 +26°C° 0 mm 2 m/S 667 mmHg 51%
    15:00 +26°C° 0 mm 2 m/S 667 mmHg 51%
    16:00 +24°C° 0 mm 2 m/S 666 mmHg 57%
    17:00 +22°C° 0 mm 1 m/S 666 mmHg 63%
    18:00 +20°C° 0 mm 1 m/S 665 mmHg 69%
    19:00 +19°C° 0 mm 1 m/S 665 mmHg 70%
    20:00 +19°C° 0 mm 1 m/S 666 mmHg 71%
    21:00 +18°C° 0 mm 1 m/S 666 mmHg 72%
    22:00 +16°C° 0 mm 1 m/S 666 mmHg 75%
    23:00 +16°C° 0 mm 1 m/S 666 mmHg 78%

    Morgen, 28 Mai, Donnerstag

    Zeit Temperatur Niederschläge Wind Luftdruck Luftfeuchtigkeit
    00:00 +15°C° 0 mm 1 m/S 666 mmHg 82%
    01:00 +15°C° 0 mm 1 m/S 665 mmHg 83%
    02:00 +14°C° 0 mm 1 m/S 665 mmHg 85%
    03:00 +14°C° 0 mm 1 m/S 665 mmHg 87%
    04:00 +14°C° 0 mm 1 m/S 665 mmHg 88%
    05:00 +14°C° 0 mm 1 m/S 665 mmHg 89%
    06:00 +13°C° 0 mm 1 m/S 665 mmHg 89%
    07:00 +15°C° 0 mm 2 m/S 666 mmHg 85%
    08:00 +17°C° 0 mm 2 m/S 667 mmHg 80%
    09:00 +18°C° 0 mm 2 m/S 668 mmHg 75%
    10:00 +20°C° 0 mm 2 m/S 668 mmHg 68%
    11:00 +23°C° 0 mm 2 m/S 668 mmHg 62%
    12:00 +25°C° 0 mm 2 m/S 668 mmHg 56%
    13:00 +25°C° 0 mm 2 m/S 668 mmHg 53%
    14:00 +26°C° 0 mm 1 m/S 667 mmHg 50%
    15:00 +26°C° 0 mm 1 m/S 667 mmHg 47%
    16:00 +24°C° 0 mm 1 m/S 666 mmHg 55%
    17:00 +21°C° 0 mm 2 m/S 666 mmHg 63%
    18:00 +19°C° 0 mm 2 m/S 666 mmHg 71%
    19:00 +18°C° 0 mm 2 m/S 666 mmHg 76%
    20:00 +17°C° 0 mm 2 m/S 666 mmHg 81%
    21:00 +16°C° 0 mm 2 m/S 666 mmHg 85%
    22:00 +16°C° 0 mm 2 m/S 666 mmHg 85%
    23:00 +15°C° 0 mm 2 m/S 666 mmHg 85%

    übermorgen, 29 Mai, Freitag

    Zeit Temperatur Niederschläge Wind Luftdruck Luftfeuchtigkeit
    00:00 +15°C° 0 mm 2 m/S 666 mmHg 84%
    01:00 +14°C° 0 mm 2 m/S 666 mmHg 84%
    02:00 +14°C° 0 mm 2 m/S 666 mmHg 83%
    03:00 +14°C° 0 mm 1 m/S 665 mmHg 82%
    04:00 +14°C° 0 mm 2 m/S 665 mmHg 81%
    05:00 +13°C° 0 mm 2 m/S 666 mmHg 81%
    06:00 +13°C° 0 mm 2 m/S 666 mmHg 80%
    07:00 +15°C° 0 mm 2 m/S 667 mmHg 76%
    08:00 +16°C° 0 mm 2 m/S 667 mmHg 72%
    09:00 +18°C° 0 mm 2 m/S 668 mmHg 68%
    10:00 +19°C° 0 mm 2 m/S 668 mmHg 63%
    11:00 +21°C° 0 mm 2 m/S 668 mmHg 58%
    12:00 +24°C° 0 mm 2 m/S 669 mmHg 53%
    13:00 +24°C° 0 mm 2 m/S 668 mmHg 53%
    14:00 +24°C° 0 mm 2 m/S 668 mmHg 52%
    15:00 +25°C° 0 mm 2 m/S 667 mmHg 51%
    16:00 +23°C° 0 mm 2 m/S 667 mmHg 59%
    17:00 +20°C° 0 mm 2 m/S 666 mmHg 68%
    18:00 +18°C° 0 mm 2 m/S 666 mmHg 76%
    19:00 +17°C° 0 mm 2 m/S 666 mmHg 79%
    20:00 +17°C° 0 mm 2 m/S 666 mmHg 82%
    21:00 +16°C° 0 mm 2 m/S 666 mmHg 85%
    22:00 +15°C° 0 mm 2 m/S 666 mmHg 85%
    23:00 +15°C° 0 mm 2 m/S 666 mmHg 85%

    30 Mai, Samstag

    Zeit Temperatur Niederschläge Wind Luftdruck Luftfeuchtigkeit
    00:00 +14°C° 0 mm 2 m/S 666 mmHg 85%
    01:00 +14°C° 0 mm 2 m/S 666 mmHg 86%
    02:00 +14°C° 0 mm 2 m/S 666 mmHg 86%
    03:00 +13°C° 0 mm 2 m/S 665 mmHg 86%
    04:00 +13°C° 0 mm 2 m/S 665 mmHg 85%
    05:00 +13°C° 0 mm 2 m/S 665 mmHg 83%
    06:00 +12°C° 0 mm 2 m/S 666 mmHg 82%
    07:00 +13°C° 0 mm 3 m/S 666 mmHg 77%
    08:00 +14°C° 0 mm 3 m/S 667 mmHg 73%
    09:00 +17°C° 0 mm 3 m/S 668 mmHg 68%
    10:00 +18°C° 0 mm 3 m/S 668 mmHg 65%
    11:00 +20°C° 0 mm 3 m/S 668 mmHg 61%
    12:00 +22°C° 0 mm 3 m/S 668 mmHg 57%
    13:00 +23°C° 0 mm 2 m/S 668 mmHg 55%
    14:00 +24°C° 0 mm 2 m/S 667 mmHg 52%
    15:00 +24°C° 0 mm 2 m/S 666 mmHg 50%
    16:00 +21°C° 0 mm 2 m/S 666 mmHg 56%
    17:00 +20°C° 0 mm 2 m/S 666 mmHg 63%
    18:00 +18°C° 0 mm 2 m/S 665 mmHg 69%
    19:00 +17°C° 0 mm 2 m/S 665 mmHg 73%
    20:00 +16°C° 0 mm 1 m/S 665 mmHg 76%
    21:00 +15°C° 0 mm 1 m/S 666 mmHg 79%
    22:00 +15°C° 0 mm 1 m/S 666 mmHg 80%
    23:00 +15°C° 0 mm 1 m/S 666 mmHg 80%

    31 Mai, Sonntag

    Zeit Temperatur Niederschläge Wind Luftdruck Luftfeuchtigkeit
    00:00 +14°C° 0 mm 1 m/S 666 mmHg 81%
    01:00 +14°C° 0 mm 1 m/S 666 mmHg 82%
    02:00 +14°C° 0 mm 1 m/S 665 mmHg 84%
    03:00 +13°C° 0 mm 1 m/S 665 mmHg 85%
    04:00 +13°C° 0 mm 1 m/S 665 mmHg 86%
    05:00 +13°C° 0 mm 1 m/S 665 mmHg 87%
    06:00 +13°C° 0 mm 1 m/S 665 mmHg 88%
    07:00 +15°C° 0 mm 2 m/S 666 mmHg 81%
    08:00 +16°C° 0 mm 2 m/S 667 mmHg 74%
    09:00 +18°C° 0 mm 2 m/S 668 mmHg 68%
    10:00 +20°C° 0 mm 2 m/S 668 mmHg 62%
    11:00 +23°C° 0 mm 2 m/S 668 mmHg 55%
    12:00 +24°C° 0 mm 1 m/S 668 mmHg 49%
    13:00 +25°C° 0 mm 1 m/S 668 mmHg 47%
    14:00 +25°C° 0 mm 1 m/S 668 mmHg 45%
    15:00 +26°C° 0 mm 1 m/S 667 mmHg 42%
    16:00 +24°C° 0 mm 1 m/S 667 mmHg 49%
    17:00 +22°C° 0 mm 1 m/S 666 mmHg 57%
    18:00 +20°C° 0 mm 1 m/S 666 mmHg 64%
    19:00 +19°C° 0 mm 1 m/S 666 mmHg 67%
    20:00 +18°C° 0 mm 1 m/S 666 mmHg 70%
    21:00 +16°C° 0 mm 1 m/S 666 mmHg 73%
    22:00 +16°C° 0 mm 1 m/S 666 mmHg 76%
    23:00 +16°C° 0 mm 1 m/S 666 mmHg 79%

    1 Juni, Montag

    Zeit Temperatur Niederschläge Wind Luftdruck Luftfeuchtigkeit
    00:00 +15°C° 0 mm 1 m/S 666 mmHg 82%
    01:00 +15°C° 0 mm 1 m/S 666 mmHg 83%
    02:00 +15°C° 0 mm 1 m/S 665 mmHg 83%
    03:00 +14°C° 0 mm 1 m/S 665 mmHg 84%
    04:00 +13°C° 0 mm 0 m/S 665 mmHg 84%
    05:00 +13°C° 0 mm 0 m/S 665 mmHg 84%
    06:00 +13°C° 0 mm 0 m/S 665 mmHg 84%
    07:00 +15°C° 0 mm 0 m/S 666 mmHg 77%
    08:00 +17°C° 0 mm 0 m/S 667 mmHg 70%
    09:00 +19°C° 0 mm 0 m/S 668 mmHg 62%
    10:00 +21°C° 0 mm 0 m/S 668 mmHg 56%
    11:00 +23°C° 0 mm 0 m/S 668 mmHg 49%
    12:00 +27°C° 0 mm 1 m/S 668 mmHg 42%
    13:00 +27°C° 0 mm 1 m/S 668 mmHg 42%
    14:00 +27°C° 0 mm 1 m/S 667 mmHg 41%
    15:00 +27°C° 0 mm 1 m/S 666 mmHg 40%
    16:00 +25°C° 0 mm 1 m/S 666 mmHg 47%
    17:00 +23°C° 0 mm 1 m/S 666 mmHg 53%
    18:00 +19°C° 0 mm 0 m/S 665 mmHg 59%
    19:00 +18°C° 0 mm 0 m/S 665 mmHg 60%
    20:00 +18°C° 0 mm 0 m/S 666 mmHg 61%
    21:00 +17°C° 0 mm 0 m/S 666 mmHg 62%
    22:00 +16°C° 0 mm 0 m/S 666 mmHg 64%
    23:00 +16°C° 0 mm 0 m/S 666 mmHg 66%
    Mehr zeigen